SES-2

Last updated on Sun Jun 21 2026 00:03:05 GMT+0000 (Coordinated Universal Time)

1 37809U 11049A 26171.38933449 -.00000200 00000+0 00000+0 0 9993 2 37809 0.0701 96.8317 0002714 349.6425 235.2805 1.00271736 53996
UTC large
Height (km)
Speed (km/s)
/
Latitude / Longitude
Inclination (degrees)
Orbital Period (minutes)
Azimuth
Elevation
Range (km)
Doppler Factor

Next 0 passes for location: London (51.5072 / 0.1276)

No passes found over London.
SES-2